CAPE
15 13 4 10 8 0 0 0 0 1 2 1 0 1 1 1 23 5 0 0 0 1 0 3 3 0 4 0 0 0 0 3 2 0 0 0 0 0 0 0 0 0 0 0
0 0 0 0 0 0 0 0 1 1 4 3 0 0 2 1 1 1 5 0 0 0 1 0 3 2 0 0 0 0 0 0 1 2 0 0 0 0 0 0 0 0 1 0
0 0 0 0 0 0 0 0 0 1 1 1 1 2 0 1 0 0 0 0 0 0 0 0 0 0 0 0 0 0 0 0 0 0 0 0 0 0 0 0 0 0 0 0
0 0 0 0 0 0 0 0 1 2 4 1 4 1 0 2 6 0 0 0 0 0 0 0 0 0 0 0 0 0 0 0 0 0 0 0 0 0 0 0 0 0 0 0
9 0 0 0 0 0 0 0 0 0 0 0 0 0 2 0 0 0 0 0 0 0 0 0 0 0 0 0 0 0 0 0 0 0 0 0 0 0 0 0 0 0 0 0
5 0 0 0 0 0 0 0 0 0 0 0 1 2 1 0 0 0 0 0 0 0 0 0 0 0 0 0 0 0 0 0 0 0 0 0 0 0 0 0 0 0 0 0
4 0 0 0 0 0 0 0 0 0 0 0 1 0 0 0 0 0 0 0 0 0 0 0 0 0 0 0 0 0 0 0 0 0 0 0 0 0 0 0 0 0 0 0
0 0 0 0 0 0 0 0 0 0 0 0 0 0 0 0 0 0 0 0 0 0 0 0 0 0 0 0 0 0 0 0 0 0 0 0 0 0 0 0 0 0 0 0
0 0 0 0 0 0 0 0 0 0 0 0 0 0 0 0 0 0 0 0 0 0 0 0 0 0 0 0 0 0 0 0 0 0 0 0 0 0 0 0 0 0 0 0
0 0 0 0 0 0 0 0 0 0 0 0 0 0 0 0 0 0 0 0 0 0 0 0 0 0 0 0 0 0 0 0 0 0 0 0 0 0 0 0 0 0 0 0
1 0 0 0 0 0 0 0 0 0 0 0 0 0 0 0 0 0 0 0 0 0 0 0 0 0 0 0 0 0 0 0 0 0 0 0 0 0 0 0 0 0 0 0
0 0 0 0 0 0 0 0 0 0 0 0 0 0 0 0 0 0 0 0 0 0 0 0 0 0 0 0 0 0 0 0 0 0 0 0 0 0 0 0 0 0 0 0
0 0 1 0 0 0 0 0 0 0 0 0 0 0 0 0 0 0 0 0 0 0 0 0 0 0 0 0 0 0 0 0 0 0 0 0 0 0 0 0 0 0 0 0
0 0 0 0 0 0 0 0 0 0 0 0 0 0 0 0 0 0 0 0 0 0 0 0 0 0 0 0 0 0 0 0 0 0 0 0 0 0 0 0 0 0 0 0
0 0 0 0 0 0 0 0 0 0 0 0 0 0 0 0 0 0 0 0 0 0 0 0 0 0 0 0 0 0 0 0 0 0 0 0 0 0 0 0 0 0 0 0
0 0 0 0 0 0 0 0 0 0 0 0 0 0 0 0 0 0 0 0 0 0 0 0 0 0 0 0 0 0 0 0 0 0 0 0 0 0 0 0 0 0 0 0
0 0 0 0 0 0 0 0 0 0 0 0 0 0 0 0 0 0 0 0 0 0 0 0 0 0 0 0 0 0 0 0 0 0 0 0 0 0 0 0 0 0 0 0
0 0 0 0 0 0 0 0 0 0 0 0 0 0 0 0 0 0 0 0 0 0 0 0 0 0 0 0 0 0 0 0 0 0 0 0 0 0 0 0 0 0 0 0
0 0 0 0 0 0 0 0 0 0 0 0 0 0 0 0 0 0 0 0 0 0 0 0 0 0 0 0 0 0 0 0 0 0 0 0 0 0 0 0 0 0 0 0
0 0 0 0 0 0 0 0 0 0 0 0 0 0 0 0 0 0 0 0 0 0 0 0 0 0 0 0 0 0 0 0 0 0 0 0 0 0 0 0 0 0 0 0
0 0 0 0 0 0 0 0 0 0 0 0 0 0 0 0 0 0 0 0 0 0 0 0 0 0 0 0 0 0 0 0 0 0 0 0 0 0 0 0 0 0 0 0
0 0 0 0 0 0 0 0 0 0 0 0 0 0 0 0 0 0 0 0 0 0 0 0 0 0 0 0 0 0 0 0 0 0 0 0 0 0 0 0 0 0 0 0
0 0 0 0 0 0 0 0 0 0 0 0 0 0 0 0 0 0 0 0 0 0 0 0 0 0 0 0 0 0 0 0 0 0 0 0 0 0 0 0 0 0 0 0
0 0 0 0 0 0 0 0 0 0 0 0 0 0 0 0 0 0 0 0 0 0 0 0 0 0 0 0 0 0 0 0 0 0 0 0 0 0 0 0 0 0 0 0
0 0 0 0 0 0 0 0 0 0 0 0 0 0 0 0 0 0 0 0 0 0 0 0 0 0 0 0 0 0 0 0 0 0 0 0 0 0 0 0 0 0 0 0
0 0 0 0 0 0 0 0 0 0 0 0 0 0 0 0 0 0 0 0 0 0 0 0 0 0 0 0 0 0 0 0 0 0 0 0 0 0 0 0 0 0 0 0
0 0 1 0 0 0 0 0 0 0 0 0 0 0 0 0 0 0 0 0 0 0 0 0 0 0 0 0 0 0 0 0 0 0 0 0 0 0 0 0 0 0 0 0
CIN
0 -1 -2 0 -1 0 0 0 0 -1 -2 0 0 0 0 -2 0 -5 0 0 0 -1 0 -1 -1 0 0 0 0 0 0 -1 -19 -1 0 0 0 0 0 0 0 0 0 0
0 0 0 0 0 0 0 0 0 -3 -4 0 0 0 0 0 -1 -1 -1 0 0 0 0 0 0 0 0 0 0 0 0 0 -1 -15 0 0 0 0 0 0 0 0 -1 -1
0 0 0 0 0 0 0 0 0 -1 -1 0 -2 -1 0 -2 0 -1 0 0 0 0 0 0 0 0 0 0 0 0 0 0 0 0 0 0 0 0 0 0 0 0 0 0
0 0 0 0 0 0 0 0 -1 -1 0 -1 -1 -1 0 0 -1 0 0 0 0 0 0 0 0 0 0 0 0 0 0 0 0 0 0 0 0 0 0 0 0 0 0 0
0 0 0 0 0 0 0 0 0 0 -1 0 -1 0 0 0 0 0 0 0 0 0 0 0 0 0 0 0 0 0 0 0 0 0 0 0 0 0 0 0 0 0 0 0
0 0 0 0 0 0 0 0 0 0 0 0 -1 0 0 0 -1 0 0 0 0 0 0 0 0 0 0 0 0 0 0 0 0 0 0 0 0 0 0 0 0 0 0 0
-7 0 0 0 0 0 0 0 0 0 0 -1 -1 0 0 0 0 0 0 0 0 0 0 0 0 0 0 0 0 0 0 0 0 0 0 0 0 0 0 0 0 0 0 0
0 0 0 0 0 0 0 0 0 0 0 0 -1 0 0 0 0 0 0 0 0 0 0 0 0 0 0 0 0 0 0 0 0 0 0 0 0 0 0 0 0 0 0 0
0 0 0 0 0 0 0 0 0 0 0 0 0 0 0 -1 0 0 0 0 0 0 0 0 0 0 0 0 0 0 0 0 0 0 0 0 0 0 0 0 0 0 0 0
0 0 0 0 0 0 0 0 0 0 0 0 0 0 0 0 0 0 0 0 0 0 0 0 0 0 0 0 0 0 0 0 0 0 0 0 0 0 0 0 0 0 0 0
0 0 0 0 0 0 0 0 0 0 0 0 0 0 0 0 0 -1 0 0 0 0 0 0 0 0 0 0 0 0 0 0 0 0 0 0 0 0 0 0 0 0 0 0
0 0 0 0 0 0 0 0 0 0 0 0 0 0 0 0 0 0 0 0 0 0 0 0 0 0 0 0 0 0 0 0 0 0 0 0 0 0 0 0 0 0 0 0
0 0 0 0 0 0 0 0 0 0 0 0 0 0 0 0 0 0 0 0 0 0 0 0 0 0 0 0 0 0 0 0 0 0 0 0 0 0 0 0 0 0 0 0
0 0 0 0 0 0 0 0 0 0 0 0 0 0 0 0 0 0 0 0 0 0 0 0 0 0 0 0 0 0 0 0 0 0 0 0 0 0 0 0 0 0 0 0
0 0 0 0 0 0 0 0 0 0 0 0 0 0 0 0 0 0 0 0 0 0 0 0 0 0 0 0 0 0 0 0 0 0 0 0 0 0 0 0 0 0 0 0
0 0 0 0 0 0 0 0 0 0 0 0 0 0 0 0 0 0 0 0 0 0 0 0 0 0 0 0 0 0 0 0 0 0 0 0 0 0 0 0 0 0 0 0
0 0 0 0 0 0 0 0 0 0 0 0 0 0 0 0 0 0 0 0 0 0 0 0 0 0 0 0 0 0 0 0 0 0 0 0 0 0 0 0 0 0 0 0
0 0 0 0 0 0 0 0 0 0 0 0 0 0 0 0 0 0 0 0 0 0 0 0 0 0 0 0 0 0 0 0 0 0 0 0 0 0 0 0 0 0 0 0
-12 0 0 0 0 0 0 0 0 0 0 0 0 0 0 0 0 0 0 0 0 0 0 0 0 0 0 0 0 0 0 0 0 0 0 0 0 0 0 0 0 0 0 0
0 0 0 0 0 0 0 0 0 0 0 0 0 0 0 0 0 0 0 0 0 0 0 0 0 0 0 0 0 0 0 0 0 0 0 0 0 0 0 0 0 0 0 0
0 0 0 0 0 0 0 0 0 0 0 0 0 0 0 0 0 0 0 0 0 0 0 0 0 0 0 0 0 0 0 0 0 0 0 0 0 0 0 0 0 0 0 0
0 0 0 0 0 0 0 0 0 0 0 0 0 0 0 0 0 0 0 0 0 0 0 0 0 0 0 0 0 0 0 0 0 0 0 0 0 0 0 0 0 0 0 0
0 0 0 0 0 0 0 0 0 0 0 0 0 0 0 0 0 0 0 0 0 0 0 0 0 0 0 0 0 0 0 0 0 0 0 0 0 0 0 0 0 0 0 0
0 0 0 0 0 0 0 0 0 0 0 0 0 0 0 0 0 0 0 0 0 0 0 0 0 0 0 0 0 0 0 0 0 0 0 0 0 0 0 0 0 0 0 0
0 0 0 0 0 0 0 0 0 0 0 0 0 0 0 0 0 0 0 0 0 0 0 0 0 0 0 0 0 0 0 0 0 0 0 0 0 0 0 0 0 0 0 0
0 0 0 0 0 0 0 0 0 0 0 0 0 0 0 0 0 0 0 0 0 0 0 0 0 0 0 0 0 0 0 0 0 0 0 0 0 0 0 0 0 0 0 0
0 0 0 0 0 0 0 0 0 0 0 0 0 0 0 0 0 0 0 0 0 0 0 0 0 0 0 0 0 0 0 0 0 0 0 0 0 0 0 0 0 0 0 0
Wind_Speed
13 14 16 17 19 22 25 27 35 24 21 26 19 17 19 17 16 17 16 17 18 20 20 17 17 17 14 12 16 15 15 13 12 13 13 13 9 4 4 7 6 5 6 5
16 21 21 20 21 23 27 28 29 18 18 27 24 20 16 17 16 15 17 20 18 18 20 20 21 19 14 10 13 13 13 14 14 13 15 11 8 10 10 9 9 8 8 6
26 28 27 27 28 26 28 25 24 22 18 23 21 20 21 22 16 13 15 21 20 19 17 20 24 19 15 13 13 13 14 11 11 14 13 12 11 12 13 7 8 17 13 12
33 32 30 28 26 23 21 23 23 21 27 26 22 20 23 20 20 14 16 19 18 17 19 19 19 17 16 15 12 15 13 16 11 10 10 11 10 10 13 14 14 11 16 13
36 34 31 27 24 18 21 21 21 24 26 25 25 23 23 22 20 15 19 20 16 17 19 16 20 18 16 15 13 13 13 16 11 13 9 10 14 10 11 11 11 17 20 18
36 34 33 26 18 17 21 21 22 20 24 26 26 25 23 23 20 18 18 17 18 18 16 14 14 15 16 14 14 13 14 14 14 15 12 13 15 10 11 11 11 12 13 13
33 31 28 27 23 20 18 18 19 23 27 27 26 26 24 22 19 24 19 16 19 18 16 15 16 16 16 14 13 12 13 12 12 12 13 14 13 13 13 12 12 12 13 13
30 31 29 18 14 11 17 15 18 22 28 28 27 27 26 24 23 22 19 17 19 17 16 17 17 16 15 13 12 11 11 12 12 13 12 13 13 13 13 12 12 12 11 11
27 28 32 13 8 8 15 14 16 19 28 24 25 26 24 24 23 22 21 20 17 16 16 16 16 15 13 13 12 12 11 11 12 12 12 12 13 15 14 12 10 13 13 13
24 24 27 21 19 6 12 13 10 15 20 23 23 23 23 21 21 21 21 20 18 16 15 15 14 13 12 12 11 11 11 11 12 11 11 11 13 13 14 10 12 15 14 15
25 24 22 24 21 21 6 10 7 12 18 22 21 20 21 21 20 21 20 18 17 16 15 14 14 13 13 12 12 11 11 11 11 11 10 10 13 13 11 14 15 14 15 14
25 25 25 21 21 21 20 20 16 12 14 18 19 19 19 19 18 19 20 17 16 16 15 15 14 13 13 12 11 12 10 11 10 10 11 12 11 10 12 12 13 13 13 14
23 25 24 22 20 20 21 20 20 18 16 13 13 14 15 17 18 18 17 15 15 14 14 14 13 12 12 11 10 9 9 10 9 9 10 7 7 8 9 10 10 12 14 14
20 22 23 22 21 19 18 18 20 17 15 15 11 13 8 10 8 13 15 12 10 10 10 9 8 8 10 8 8 6 10 10 8 5 4 8 4 6 8 9 11 12 13 15
15 19 20 22 20 19 17 16 18 17 16 17 18 15 13 16 15 9 7 6 7 7 7 7 8 12 11 10 10 2 5 4 5 6 12 10 14 13 9 9 10 11 13 16
14 13 17 19 21 19 17 17 17 19 18 18 19 17 16 16 16 13 11 11 11 10 9 9 10 11 11 11 10 8 6 7 7 9 11 12 13 14 12 11 12 13 15 17
12 12 14 18 19 18 18 17 17 19 18 19 21 20 17 17 16 15 14 14 14 13 12 9 11 11 11 13 5 8 5 5 7 9 10 11 10 13 12 13 14 16 17 19
11 14 15 17 16 14 18 19 18 18 17 18 21 21 20 16 16 16 16 16 16 15 15 14 12 13 12 12 6 10 8 6 7 8 9 13 14 13 13 14 16 18 20 22
14 15 15 15 15 17 16 20 21 21 19 20 19 22 24 17 17 17 16 16 18 17 18 16 14 12 9 8 10 7 6 7 10 9 11 12 13 14 15 16 18 20 23 25
14 14 16 16 16 16 18 18 21 23 22 21 24 20 22 18 18 18 18 17 18 19 17 17 16 18 12 11 11 9 6 8 9 11 12 12 14 15 16 17 20 23 26 29
14 15 15 16 15 14 15 15 14 20 25 22 21 20 21 18 19 19 18 20 19 22 19 17 18 19 14 10 7 9 7 8 10 14 15 14 17 18 19 21 24 26 28 31
14 15 15 15 16 15 14 14 15 16 25 22 22 21 19 17 17 18 18 20 20 23 16 19 21 18 14 10 8 8 7 8 11 13 14 16 19 20 22 24 27 29 31 33
14 15 17 16 15 15 15 13 12 14 19 20 21 22 18 17 17 19 19 21 22 20 20 21 19 16 10 9 9 10 10 10 12 14 16 18 21 23 25 27 29 31 33 34
14 15 18 15 16 14 12 10 12 12 17 20 19 20 20 19 18 19 22 21 21 23 23 23 20 12 9 8 9 9 11 12 13 15 18 20 23 25 27 28 30 32 34 36
15 14 18 14 13 13 12 10 11 11 15 19 21 21 21 21 22 20 21 23 24 22 24 22 19 9 6 8 9 11 12 13 14 17 19 21 24 27 28 29 31 32 34 35
15 13 17 15 14 11 9 8 11 8 10 16 22 23 25 27 24 23 24 24 25 24 22 21 13 9 8 9 11 13 13 14 16 18 20 22 25 27 28 29 30 32 34 35
15 18 11 13 15 13 9 7 9 5 6 12 17 25 27 22 26 29 26 28 28 30 26 17 13 11 10 11 12 13 15 16 18 20 22 24 24 26 28 30 31 32 32 32
Wind_Direction
51 86 101 106 117 129 130 129 117 156 168 159 171 157 160 180 181 180 177 171 167 164 159 164 173 170 185 195 181 187 182 191 186 191 183 171 187 264 224 229 291 274 15 315
73 92 103 110 119 126 121 118 122 164 172 135 144 157 173 176 180 183 177 164 168 166 158 150 151 157 176 199 196 203 199 188 188 201 191 189 282 301 297 253 246 306 309 318
79 88 94 98 101 108 109 105 113 134 154 150 161 162 163 165 178 178 177 162 159 160 161 153 144 153 159 163 164 183 194 210 202 182 211 252 271 296 317 270 292 8 6 46
75 84 90 95 101 105 110 107 114 133 142 152 157 166 166 164 166 181 180 165 163 167 157 156 157 156 158 154 157 155 172 160 212 227 229 234 258 256 317 340 334 44 35 29
69 76 80 86 94 97 101 114 124 127 141 152 156 162 160 160 169 180 160 159 166 162 157 162 156 157 156 153 157 158 168 156 184 175 264 220 165 238 201 190 180 125 78 96
65 73 72 77 87 99 102 107 123 137 146 151 153 157 162 160 169 170 173 173 166 160 165 171 170 169 161 160 159 152 156 166 166 160 188 178 167 190 198 183 180 178 167 172
62 67 67 72 82 94 105 114 131 137 139 148 152 157 161 164 168 161 169 174 168 171 183 187 172 162 153 154 153 162 164 168 177 167 180 156 181 181 188 185 176 184 178 181
44 51 62 77 82 93 104 122 135 135 135 143 147 151 153 156 157 160 165 169 172 182 178 165 163 162 165 172 179 182 185 182 173 163 167 172 165 170 160 166 157 129 129 104
28 22 22 80 73 89 113 124 145 142 130 148 154 151 158 156 158 158 160 163 174 174 166 161 159 160 163 156 155 161 170 164 162 165 161 155 133 90 85 89 136 54 50 39
11 16 14 335 333 324 135 132 156 150 133 150 159 151 154 162 162 159 158 163 165 168 168 165 168 167 162 165 165 159 151 148 158 154 163 137 82 69 51 115 66 35 27 13
337 345 359 360 330 333 259 146 240 170 141 141 158 166 162 158 165 161 157 161 165 169 175 177 175 177 167 168 163 163 156 152 143 133 127 120 91 75 82 43 24 19 10 5
338 326 329 347 350 324 323 352 316 278 47 120 142 155 171 179 177 171 159 174 169 174 173 173 174 171 162 169 158 139 148 144 121 110 74 63 84 80 47 32 25 17 10 3
3 326 327 332 340 347 331 339 330 352 12 45 92 123 127 174 183 183 162 151 166 157 162 181 171 168 153 153 135 107 98 103 105 77 74 97 87 61 43 33 27 17 7 360
25 0 325 322 322 334 341 329 328 337 343 349 352 342 22 12 131 146 171 144 91 110 110 82 89 113 57 71 58 72 37 53 61 77 92 44 70 51 35 29 21 13 3 354
38 23 350 317 320 316 336 345 328 331 330 324 324 328 326 316 327 3 28 65 53 56 59 55 37 12 19 14 13 152 51 66 57 51 28 33 19 24 30 22 13 4 355 349
39 44 15 335 315 310 309 316 334 322 319 322 313 324 319 313 317 327 341 342 342 352 359 3 4 2 0 5 11 30 57 45 41 22 19 14 12 12 15 10 5 359 352 347
32 44 37 0 322 312 302 311 324 325 321 311 309 311 320 308 313 318 322 325 325 330 337 343 338 340 348 338 308 353 12 16 13 8 10 5 7 2 10 6 1 355 349 345
41 42 43 23 2 333 306 311 316 323 326 319 304 304 311 317 312 308 314 315 319 322 321 331 332 334 334 333 347 357 2 10 5 5 6 2 6 7 4 1 356 349 344 342
41 38 41 39 16 334 318 308 308 307 308 305 307 300 299 313 308 309 312 312 311 318 312 315 325 320 315 341 341 356 17 19 5 7 4 1 359 358 358 354 350 345 342 341
32 36 28 26 29 3 337 317 302 296 295 297 297 301 294 302 304 304 309 311 308 312 317 321 313 303 276 303 322 341 354 0 6 355 352 355 352 352 352 350 348 344 342 339
16 17 20 26 31 27 1 333 319 297 289 294 300 296 293 297 296 297 302 304 310 306 313 314 319 319 324 323 302 322 342 354 356 351 357 359 355 353 352 349 347 345 342 339
12 21 26 24 20 20 10 350 324 303 286 293 296 299 298 297 297 298 303 299 304 298 318 312 311 315 324 341 343 342 354 358 357 355 355 355 353 353 350 348 346 345 343 342
8 8 8 11 19 10 6 358 346 313 291 290 297 297 297 299 297 296 299 295 296 307 304 304 309 320 330 337 345 350 358 1 0 356 355 353 352 352 351 349 349 347 346 346
347 355 347 355 359 4 6 3 1 340 304 292 293 293 292 294 292 294 294 296 299 298 300 301 313 309 322 336 344 351 354 357 358 354 352 351 351 350 351 352 351 350 349 349
335 348 341 343 353 3 9 13 5 357 323 291 286 288 288 289 287 291 294 293 291 297 301 306 310 315 332 338 339 342 348 352 353 351 351 351 351 351 351 354 354 354 353 353
323 333 333 345 344 341 346 351 343 356 339 307 288 283 280 276 281 282 282 288 290 303 310 308 311 316 326 333 333 338 344 349 350 350 352 352 352 353 354 356 357 357 357 357
313 318 319 326 339 340 347 353 358 36 355 318 300 278 273 282 278 277 281 283 292 297 303 306 307 313 324 328 334 340 342 346 348 349 351 352 356 356 357 357 359 360 1 2